一网星座-0713星 (ONEWEB-0713)

导读 | 星芒AI

ONEWEB-0713 是 OneWeb 卫星通信公司发射的低轨通信卫星之一,属于其全球宽带互联网星座计划。该卫星运行在约 1200 公里的近地轨道,采用先进通信技术,旨在为全球用户提供高速、低延迟的互联网服务。ONEWEB-0713 于 2023 年发射,是 OneWeb 恢复并扩展其卫星网络的重要组成部分,支持偏远地区和航空、航海等移动通信需求。

基本信息
目录编号:
55175
目录名称:
ONEWEB-0713
国际标识:
2023-004AM
轨道中心:
EARTH
卫星名称:
一网星座-0713星
卫星全名:
一网星座-0713星 (ONEWEB-0713)
卫星状态:
在轨 (已飞行1024 天)
发射日期:
2023-01-10 UTC
国别 :
英国 (GB)
星等 :
--
轨道信息
数据来源 国际轨道数据
星历时间: 2025-10-30T04:30:05+0800
11小时前
查看轨道信息
半长轴: 7595.811km
偏心率: 0.0001457
轨道倾角: 87.884°
近地点辐角 89.048°
升交点赤经 66.932°
平近点角 271.082°
近地点: 1216.569km
远地点: 1218.783km
周期: 109.805分钟
每日圈数: 13.114193
详细信息
平衡模式:
三轴稳定
覆盖范围:
全球
运营商:
一网卫星公司
运营商所在国:
英国
制造商(研发单位):
一网卫星公司
制造商所在国:
英国
使用方式:
暂无
卫星简介
OneWeb卫星网络由648颗重约125公斤的微型卫星组成,运行在1200公里的轨道上。 每颗卫星都能够提供至少每秒8千兆位的吞吐量,以使用其高吞吐量的Ku频段有效载荷为家庭和移动平台提供互联网接入。该卫星仍在工作。
2D轨道图
3D轨道图
轨道高度分析图
轨道倾角分析图
轨道综合分析图
查看轨道综合分析图